Location: Bethel Church
(38.0159°N, 88.7292°W)
Time: 03:08:17
(UTC+00:00)

Cosmos 1151 Rocket - Pass Details

Date: 08 December 2021
Orbit: 591 x 616 km, 82.5° (Epoch: 21 January)

Event Time Altitude Azimuth Distance (km) Brightness Sun altitude
Rises 23:19:36 0° 185° (S) 2,842 6.9 -8.7°
Reaches altitude 10° 23:21:47 10° 185° (S) 1,947 6.0 -9.1°
Maximum altitude 23:26:06 87° 96° (E) 615 3.0 -9.9°
Drops below altitude 10° 23:30:29 10° 8° (N) 1,976 5.4 -10.7°
Sets 23:32:43 0° 8° (N) 2,888 6.2 -11.1°
